Location: Terre Du Lac
(37.9120°N, 90.6250°W)
Time: 17:07:09
(UTC-05:00)

HST - Visible Passes

Search period start: 29 August 2014 00:00
Search period end: 08 September 2014 00:00
Orbit: 547 x 551 km, 28.5° (Epoch: 29 August)

Date Brightness Start Highest point End Pass type
(mag) Time Alt. Az. Time Alt. Az. Time Alt. Az.
05 Sep 3.0 20:26:19 10° S 20:27:31 11° SSE 20:28:03 11° SSE visible
06 Sep 2.8 20:18:21 10° SSW 20:20:25 13° SSE 20:21:43 12° SE visible
07 Sep 2.7 20:10:47 10° SSW 20:13:20 16° SSE 20:15:17 12° SE visible
